METEOR 2-5 DEB, 45512

Orbit data source: Space-Track

METEOR 2-5 DEB, 45512 is space debris in LEO originally from a launch on Wed, 31 Oct 1979 UTC launched from the Plesetsk Missile And Space Complex (PKMTR). Debris objects in space refer to the collection of defunct objects orbiting the Earth. Examples of debris include non-operational satellites, rocket bodies, and fragments generated from explosions, collisions, or faulty payload assembly.

Loading next visibility...
Identifier
45512, 1979-095CU
Orbit
LEO
Country
Flag of CISCIS
Related business
Manufacturer
Unknown
Mission
Spacecraft
Bus & Motor
Unknown
Mass
Unknown
Launch date (UTC)
1979-10-31 (47 years ago)
Launch vehicle
Unknown
Launch site
Plesetsk Missile And Space Complex (PKMTR)
Object type
Payload
Rocket body
Debris
Shape & HBR
Unknown shape, 0.1 m
Radar Cross Section
Small (<0.1 m²)

Expand to show TLE details & history
Last TLE update: 6 days ago

TLE from 6 days ago
0 METEOR 2-5 DEB
1 45512U 79095CU  26167.41352727  .00002207  00000-0  87802-3 0  9999
2 45512  81.2189 194.3144 0009698 168.4795 191.6610 14.28383013566000
Epoch: 2026-06-16T09:55Z
TLE epoch observation values (Epoch: 2026-06-16T09:55:28.756Z)
Latitude
0.00002°
Longitude
140.75867°
Altitude
806.881 km
Speed
7.446 km/s
True Right ascension
12h 57m 15s
True Declination
0° 00' 00"
Sunlit
Object was in daylight at epoch
Visualization orbit readout
Latitude
Unknown
Longitude
Unknown
Altitude
Unknown
Speed
Unknown
Apparent Right ascension
Unknown
Apparent Declination
Unknown
Sunlit
N/A
Visualization observer readout
Local Sidereal Time
02:13:20
Azimuth
Unknown
Elevation
Unknown
Doppler factor
Unknown
Orbital elements
Apogee altitude
801.248 km
Perigee altitude
787.336 km
Semi-major axis
7,172.429 km
Eccentricity
0.00097
Inclination
81.2189°
RAAN
194.3144°
Arg. of periapsis
168.4795°
True anomaly
191.63856°
Mean anomaly
191.661°
Eccentric anomaly
191.64978°
Mean motion
3.57309 °/min
Orbital period
100.75 mins
BSTAR
0.00087802
Loading maneuver chart data...
Computing Atmospheric mass density...

Documentation

Showing up to 5 results
|